K7WBM Weather Reports


time (UTC)temp
C
wind
direction
speed
KPH
gust
KPH
rain 1hr
cm
rain 24hr
cm
rain mn
cm
humidity
%
barometer
mb
20260504044536 12 0 0.0 0.0 0.00 0.00 0.00 52 1010.2
20260504043045 13 0 0.0 1.6 0.00 0.00 0.00 52 1010.4
20260504041537 13 0 0.0 1.6 0.00 0.00 0.00 51 1010.1
20260504040038 13 0 0.0 3.2 0.00 0.00 0.00 51 1010.1
20260504034537 13 0 0.0 0.0 0.00 0.00 0.00 52 1010.0
20260504033038 13 0 0.0 0.0 0.00 0.00 0.00 50 1009.9
20260504031540 15 0 0.0 1.6 0.00 0.00 0.00 48 1010.0
20260504030040 15 295 0.0 1.6 0.00 0.00 0.00 47 1009.9
20260504024536 15 0 0.0 3.2 0.00 0.00 0.00 47 1009.9
20260504023041 15 294 0.0 6.4 0.00 0.00 0.00 47 1009.9
20260504021537 16 313 0.0 8.0 0.00 0.00 0.00 47 1010.2
20260504020036 16 308 1.6 8.0 0.00 0.00 0.00 46 1010.1
20260504014540 16 293 3.2 9.7 0.00 0.00 0.00 47 1010.2
20260504013044 16 0 1.6 11.3 0.00 0.00 0.00 46 1010.6
20260504011539 17 106 1.6 25.7 0.00 0.00 0.00 43 1010.8
20260504010041 17 277 4.8 16.1 0.00 0.00 0.00 41 1010.4
20260504004538 17 290 3.2 16.1 0.00 0.00 0.00 41 1010.3
20260504003038 18 299 4.8 19.3 0.00 0.00 0.00 40 1010.3
20260504001540 18 281 6.4 16.1 0.00 0.00 0.00 39 1010.1
20260504000042 18 291 8.0 19.3 0.00 0.00 0.00 40 1009.5
20260503234539 18 0 8.0 30.6 0.00 0.00 0.00 42 1009.2
20260503233041 18 247 9.7 33.8 0.00 0.00 0.00 40 1009.3
20260503231537 20 30 8.0 22.5 0.00 0.00 0.00 39 1009.0
20260503230037 20 220 8.0 24.1 0.00 0.00 0.00 37 1008.4
20260503224536 21 73 1.6 17.7 0.00 0.00 0.00 31 1008.2
20260503223036 21 125 4.8 12.9 0.00 0.00 0.00 30 1008.1
20260503221538 21 0 6.4 19.3 0.00 0.00 0.00 30 1008.2
20260503220039 23 240 6.4 19.3 0.00 0.00 0.00 26 1008.4
20260503214536 24 125 0.0 8.0 0.00 0.00 0.00 20 1007.8
20260503213037 25 340 0.0 8.0 0.00 0.00 0.00 18 1007.8
20260503211538 25 0 0.0 8.0 0.00 0.00 0.00 21 1007.8
20260503210036 24 0 3.2 12.9 0.00 0.00 0.00 27 1007.9
20260503204537 23 60 6.4 12.9 0.00 0.00 0.00 24 1007.9
20260503203041 24 0 0.0 8.0 0.00 0.00 0.00 22 1008.2
20260503201538 25 0 1.6 4.8 0.00 0.00 0.00 21 1008.5
20260503200037 25 0 0.0 4.8 0.00 0.00 0.00 22 1009.0
20260503194537 24 264 1.6 4.8 0.00 0.00 0.00 22 1009.3
20260503193040 23 0 0.0 3.2 0.00 0.00 0.00 26 1009.6
20260503191539 23 108 0.0 6.4 0.00 0.00 0.00 29 1009.9
20260503190037 23 0 0.0 6.4 0.00 0.00 0.00 26 1010.2
20260503184539 22 153 0.0 4.8 0.00 0.00 0.00 28 1010.4
20260503183037 22 110 0.0 4.8 0.00 0.00 0.00 30 1010.6
20260503181536 22 97 1.6 6.4 0.00 0.00 0.00 33 1010.8
20260503180045 22 0 0.0 3.2 0.00 0.00 0.00 31 1011.0
20260503174542 22 67 0.0 3.2 0.00 0.00 0.00 29 1011.2
20260503173046 21 0 0.0 3.2 0.00 0.00 0.00 32 1011.4
20260503171537 21 80 0.0 3.2 0.00 0.00 0.00 32 1011.3
20260503081535 14 347 3.2 4.8 0.00 0.00 0.00 52 1013.1
20260503071543 15 0 0.0 0.0 0.00 0.00 0.00 46 1013.3
20260503060106 17 293 4.8 11.3 0.00 0.00 0.00 41 1012.5